Stations météo

réclame
Mon MeteoGroup
Granada/Aeropuerto, Espagne (8419): Température de l'air & dewpoint: 13.06.2018 20:00:00 - 19.06.2018 20:00:00 (CEST)Granada/Aeropuerto, Espagne (8419): Vitesse du vent: 13.06.2018 20:00:00 - 19.06.2018 20:00:00 (CEST)Granada/Aeropuerto, Espagne (8419): Direction du vent: 13.06.2018 20:00:00 - 19.06.2018 20:00:00 (CEST)Granada/Aeropuerto, Espagne (8419): reduced air pressure: 13.06.2018 20:00:00 - 19.06.2018 20:00:00 (CEST)Granada/Aeropuerto, Espagne (8419): visibility: 13.06.2018 20:00:00 - 19.06.2018 20:00:00 (CEST)
Date & Time tt [°C] td [°C] ff [km/h] ff [knt] dd ppp [hPa] vv [km]
19.06.2018 20:00:00 - - - - - - -
19.06.2018 19:00:00 31,0 11,4 24 13 SSE 1013,6 30
19.06.2018 18:00:00 31,8 11,6 9 5 SW 1013,8 30
19.06.2018 17:00:00 32,3 10,3 13 7 SW 1014,0 25
19.06.2018 16:00:00 32,3 10,1 15 8 W 1014,6 30
19.06.2018 15:00:00 32,1 10,2 16 9 S 1015,1 30
19.06.2018 14:00:00 31,5 9,1 18 10 SE 1015,8 25
19.06.2018 13:00:00 30,8 9,6 21 11 SSE 1016,2 30
19.06.2018 12:00:00 29,7 9,8 24 13 SE 1016,7 30
19.06.2018 11:00:00 27,7 10,2 11 6 SE 1017,5 25
19.06.2018 10:00:00 24,5 12,8 8 4 NE 1018,4 26
19.06.2018 09:00:00 21,4 12,0 0 0 N 1019,3 25
19.06.2018 08:00:00 19,4 12,0 0 0 N 1019,6 25
19.06.2018 07:00:00 16,0 9,6 2 1 W 1020,3 30
19.06.2018 06:00:00 18,9 11,7 5 3 SE 1019,0 30
19.06.2018 05:00:00 18,6 9,4 2 1 E 1018,6 30
19.06.2018 04:00:00 18,9 9,5 4 2 W 1018,8 30
19.06.2018 03:00:00 19,7 9,8 5 3 WSW 1018,6 30
19.06.2018 02:00:00 21,3 9,8 4 2 W 1018,1 30
19.06.2018 01:00:00 23,5 9,9 0 0 N 1017,5 30
19.06.2018 00:00:00 25,3 9,8 8 4 S 1017,0 30
18.06.2018 23:00:00 26,3 8,3 5 3 WSW 1015,9 30
18.06.2018 22:00:00 27,7 10,8 11 6 S 1014,9 30
18.06.2018 21:00:00 31,2 9,9 16 9 SW 1013,7 30
18.06.2018 20:00:00 33,5 10,8 16 9 SW 1012,7 30
18.06.2018 19:00:00 34,6 13,0 16 9 SW 1011,7 30
18.06.2018 18:00:00 36,7 10,8 15 8 SSE 1011,4 30
18.06.2018 17:00:00 36,9 11,0 8 4 S 1011,6 30
18.06.2018 16:00:00 34,5 11,0 24 13 SSE 1013,0 30
18.06.2018 15:00:00 35,7 11,4 8 4 E 1013,1 30
18.06.2018 14:00:00 34,8 12,0 13 7 N 1013,8 30
18.06.2018 13:00:00 32,9 12,9 9 5 N 1014,9 30
18.06.2018 12:00:00 30,5 12,8 4 2 NE 1015,9 27
18.06.2018 11:00:00 27,2 12,7 4 2 NE 1017,1 25
18.06.2018 10:00:00 23,9 12,6 4 2 NNE 1018,2 25
18.06.2018 09:00:00 21,5 12,4 0 0 N 1019,0 25
18.06.2018 08:00:00 17,4 10,6 0 0 N 1019,7 25
18.06.2018 07:00:00 17,2 10,3 4 2 SW 1019,6 27
18.06.2018 06:00:00 17,9 10,3 2 1 SW 1019,1 30
18.06.2018 05:00:00 17,9 11,0 4 2 N 1019,1 30
18.06.2018 04:00:00 19,6 9,5 9 5 SSW 1018,5 30
18.06.2018 03:00:00 19,4 9,8 2 1 W 1018,5 30
18.06.2018 02:00:00 20,6 9,8 0 0 N 1018,6 30
18.06.2018 01:00:00 22,1 10,3 0 0 N 1018,6 30
18.06.2018 00:00:00 23,6 10,3 4 2 W 1018,3 30
17.06.2018 23:00:00 26,7 9,1 8 4 S 1017,2 30
17.06.2018 22:00:00 29,4 9,5 11 6 S 1015,9 30
17.06.2018 21:00:00 31,9 10,1 15 8 S 1014,8 30
17.06.2018 20:00:00 32,9 9,8 18 10 SSW 1014,2 30
17.06.2018 19:00:00 33,7 10,5 24 13 SSE 1013,4 30
17.06.2018 18:00:00 36,1 13,4 16 9 WNW 1012,5 26
17.06.2018 17:00:00 36,3 11,4 16 9 NW 1012,6 30
17.06.2018 16:00:00 36,1 9,7 5 3 W 1013,0 30
17.06.2018 15:00:00 35,0 11,1 5 3 NNW 1013,4 30
17.06.2018 14:00:00 33,4 11,7 4 2 E 1014,0 30
17.06.2018 13:00:00 31,7 11,5 4 2 NW 1014,8 30
17.06.2018 12:00:00 29,4 11,4 5 3 N 1015,5 30
17.06.2018 11:00:00 27,6 11,6 0 0 N 1016,0 30
17.06.2018 10:00:00 25,0 10,6 0 0 N 1016,9 30
17.06.2018 09:00:00 20,7 11,3 0 0 N 1017,7 20
17.06.2018 08:00:00 16,9 9,8 2 1 SSW 1018,4 30
17.06.2018 07:00:00 15,2 8,7 5 3 SSW 1018,3 30
17.06.2018 06:00:00 15,7 8,4 0 0 N 1017,6 30
17.06.2018 05:00:00 16,4 8,4 4 2 SSW 1017,2 30
17.06.2018 04:00:00 17,1 8,6 0 0 N 1016,7 30
17.06.2018 03:00:00 18,1 8,6 0 0 N 1016,4 30
17.06.2018 02:00:00 19,5 8,8 0 0 N 1015,6 30
17.06.2018 01:00:00 20,6 8,6 5 3 SSW 1015,3 30
17.06.2018 00:00:00 21,8 9,4 2 1 WNW 1014,9 30
16.06.2018 23:00:00 25,5 8,5 2 1 NNE 1013,5 30
16.06.2018 22:00:00 28,5 9,2 13 7 SSW 1011,7 30
16.06.2018 21:00:00 31,6 10,9 18 10 WSW 1010,3 25
16.06.2018 20:00:00 33,5 10,8 21 11 W 1009,2 25
16.06.2018 19:00:00 34,9 11,0 9 5 SW 1008,5 30
16.06.2018 18:00:00 35,5 10,0 16 9 SSE 1008,6 30
16.06.2018 17:00:00 35,0 8,7 5 3 N 1008,8 25
16.06.2018 16:00:00 35,2 10,1 9 5 W 1009,0 30
16.06.2018 15:00:00 34,2 9,3 8 4 SW 1009,6 30
16.06.2018 14:00:00 32,4 9,8 8 4 N 1010,7 25
16.06.2018 13:00:00 31,1 11,5 4 2 NNW 1011,3 30
16.06.2018 12:00:00 28,8 12,2 4 2 N 1012,3 24
16.06.2018 11:00:00 26,4 11,0 4 2 WNW 1013,1 30
16.06.2018 10:00:00 23,2 10,8 0 0 N 1013,8 25
16.06.2018 09:00:00 19,5 9,9 0 0 N 1014,4 30
16.06.2018 08:00:00 16,6 9,1 0 0 N 1014,8 25
16.06.2018 07:00:00 13,9 8,1 0 0 N 1015,0 30
16.06.2018 06:00:00 14,5 8,4 0 0 N 1014,5 30
16.06.2018 05:00:00 15,1 8,3 0 0 N 1014,3 30
16.06.2018 04:00:00 16,1 8,7 4 2 SW 1014,1 30
16.06.2018 03:00:00 16,9 8,9 0 0 N 1014,2 30
16.06.2018 02:00:00 18,3 9,3 9 5 WSW 1014,1 30
16.06.2018 01:00:00 19,7 9,0 0 0 N 1013,8 30
16.06.2018 00:00:00 22,7 8,5 4 2 E 1012,8 30
15.06.2018 23:00:00 23,6 7,2 8 4 SSW 1012,3 30
15.06.2018 22:00:00 26,9 7,4 5 3 WSW 1010,8 28
15.06.2018 21:00:00 30,6 7,7 8 4 NW 1009,6 30
15.06.2018 20:00:00 32,8 6,1 11 6 WNW 1008,9 30
15.06.2018 19:00:00 33,6 6,2 15 8 W 1008,7 30
15.06.2018 18:00:00 34,1 8,5 16 9 WNW 1008,6 30
15.06.2018 17:00:00 33,9 7,6 4 2 WSW 1009,0 30
15.06.2018 16:00:00 33,4 8,0 9 5 WNW 1009,6 30
15.06.2018 15:00:00 32,7 7,4 0 0 N 1010,5 30
15.06.2018 14:00:00 31,0 5,9 9 5 NW 1011,5 30
15.06.2018 13:00:00 29,8 6,0 4 2 NNW 1012,2 29
15.06.2018 12:00:00 27,7 7,9 4 2 NW 1013,3 30
15.06.2018 11:00:00 24,6 9,1 4 2 NNW 1014,2 30
15.06.2018 10:00:00 20,6 9,5 4 2 NW 1015,3 28
15.06.2018 09:00:00 17,7 8,1 2 1 N 1015,9 30
15.06.2018 08:00:00 15,1 7,6 4 2 WSW 1016,2 30
15.06.2018 07:00:00 12,1 7,9 0 0 N 1016,4 30
15.06.2018 06:00:00 13,6 8,4 0 0 N 1016,0 30
15.06.2018 05:00:00 14,6 8,2 5 3 SE 1015,7 30
15.06.2018 04:00:00 15,7 7,5 0 0 N 1015,4 30
15.06.2018 03:00:00 16,3 7,2 4 2 SW 1015,6 30
15.06.2018 02:00:00 17,2 7,0 4 2 SW 1015,1 30
15.06.2018 01:00:00 18,2 7,4 5 3 WSW 1014,9 30
15.06.2018 00:00:00 20,3 7,0 8 4 SSW 1014,1 30
14.06.2018 23:00:00 22,0 7,0 5 3 SW 1013,6 25
14.06.2018 22:00:00 24,7 6,4 5 3 NW 1012,3 30
14.06.2018 21:00:00 28,0 7,1 13 7 N 1011,0 29
14.06.2018 20:00:00 29,8 8,2 16 9 NNW 1010,1 25
14.06.2018 19:00:00 30,5 7,1 16 9 NNW 1009,7 30
14.06.2018 18:00:00 30,5 7,2 15 8 NNW 1009,8 30
14.06.2018 17:00:00 31,5 8,9 18 10 N 1009,7 30
14.06.2018 16:00:00 - - - - - - -
14.06.2018 15:00:00 - - - - - - -
14.06.2018 14:00:00 - - - - - - -
14.06.2018 13:00:00 - - - - - - -
14.06.2018 12:00:00 - - - - - - -
14.06.2018 11:00:00 - - - - - - -
14.06.2018 10:00:00 - - - - - - -
14.06.2018 09:00:00 - - - - - - -
14.06.2018 08:00:00 - - - - - - -
14.06.2018 07:00:00 - - - - - - -
14.06.2018 06:00:00 - - - - - - -
14.06.2018 05:00:00 - - - - - - -
14.06.2018 04:00:00 - - - - - - -
14.06.2018 03:00:00 - - - - - - -
14.06.2018 02:00:00 - - - - - - -
14.06.2018 01:00:00 - - - - - - -
14.06.2018 00:00:00 - - - - - - -
13.06.2018 23:00:00 - - - - - - -
13.06.2018 22:00:00 - - - - - - -
13.06.2018 21:00:00 - - - - - - -
13.06.2018 20:00:00 - - - - - - -

tt = Température de l'air
td = dewpoint
ff = Vitesse du vent
dd = Direction du vent
ppp = reduced air pressure
vv = visibility

stations d'obs. à proximité